Location: Bernay
(48.6766°N, 2.9386°E)
Time: 03:24:40
(UTC+00:00)

Cosmos 1328 Rocket - Visible Passes

Search period start: 21 April 2026 00:00
Search period end: 01 May 2026 00:00
Orbit: 595 x 618 km, 82.5° (Epoch: 20 April)

Date Brightness Start Highest point End Pass type
(mag) Time Alt. Az. Time Alt. Az. Time Alt. Az.
22 Apr 6.6 03:34:44 10° ESE 03:37:03 14° E 03:39:21 10° NE visible
23 Apr 6.2 03:46:47 10° SE 03:50:08 22° E 03:53:31 10° NE visible
24 Apr 5.3 03:59:23 10° SSE 04:03:19 35° E 04:07:17 10° NNE visible
26 Apr 6.8 02:52:10 10° E 02:53:00 10° E 02:53:50 10° ENE visible
27 Apr 6.3 03:03:18 10° SE 03:06:04 17° E 03:08:52 10° NE visible
28 Apr 5.7 03:15:35 10° SE 03:19:12 26° E 03:22:50 10° NNE visible
29 Apr 4.8 03:28:18 10° SSE 03:32:23 42° E 03:36:31 10° NNE visible
30 Apr 3.9 03:41:20 10° S 03:45:39 69° E 03:50:00 10° NNE visible
